DMSP 5D-2 F13 DEB, 42262

Orbit data source: Space-Track

DMSP 5D-2 F13 DEB, 42262 is space debris in SSO originally from a launch on Fri, 24 Mar 1995 UTC launched from the Air Force Western Test Range (AFWTR). Debris objects in space refer to the collection of defunct objects orbiting the Earth. Examples of debris include non-operational satellites, rocket bodies, and fragments generated from explosions, collisions, or faulty payload assembly.

Loading next visibility...
Identifier
42262, 1995-015GC
Orbit
SSO
Country
Flag of USUS
Related business
Manufacturer
Unknown
Mission
Spacecraft
Bus & Motor
Unknown
Mass
Unknown
Launch date (UTC)
1995-03-24 (31 years ago)
Launch vehicle
Unknown
Launch site
Air Force Western Test Range (AFWTR)
Object type
Payload
Rocket body
Debris
Shape & HBR
Unknown shape, 0.1 m
Radar Cross Section
Small (<0.1 m²)

Expand to show TLE details & history
Last TLE update: 21 hours ago

TLE from 21 hours ago
0 DMSP 5D-2 F13 DEB
1 42262U 95015GC  25341.10916952  .00028311  00000-0  49759-2 0  9995
2 42262  98.5287  37.9896 0027208 264.4051  95.4049 14.67341650558141
Epoch: 2025-12-07T02:37Z
TLE epoch observation values (Epoch: 2025-12-07T02:37:12.246Z)
Latitude
-0.00002°
Longitude
-77.4387°
Altitude
674.41 km
Speed
7.519 km/s
True Right ascension
02h 31m 57s
True Declination
0° 00' 00"
Sunlit
Object was in full shadow at epoch
Visualization orbit readout
Latitude
Unknown
Longitude
Unknown
Altitude
Unknown
Speed
Unknown
Apparent Right ascension
Unknown
Apparent Declination
Unknown
Sunlit
N/A
Visualization observer readout
Local Sidereal Time
21:27:24
Azimuth
Unknown
Elevation
Unknown
Doppler factor
Unknown
Orbital elements
Apogee altitude
685.822 km
Perigee altitude
647.487 km
Semi-major axis
7,044.791 km
Eccentricity
0.00272
Inclination
98.5287°
RAAN
37.9896°
Arg. of periapsis
264.4051°
True anomaly
95.71519°
Mean anomaly
95.4049°
Eccentric anomaly
95.56006°
Mean motion
3.67063 °/min
Orbital period
98.08 mins
BSTAR
0.0049759
Loading maneuver chart data...
Computing Atmospheric mass density...

Documentation

Showing up to 5 results
|